Starlink 33545

operational
NORAD ID: 62101 Int'l Des: 2024-220 Owner: SPXS Country: US Constellation: starlink
LEOCIRCULAR

About Starlink 33545

Description loading...

Live Position

Loading 3D Globe...

Upcoming Passes

Altitude History

Altitude vs Time

uPlot chart will show altitude changes over time

Two-Line Element Set

1 62101U 24220P 25351.23427623 .00035365 00000-0 12870-2 0 9997
2 62101 43.0001 310.9572 0001365 278.1843 81.8854 15.27617593 60416
Epoch: Dec 17, 2025 • Age: 16 hours

Current Status

Altitude 482.0 km
Velocity 7.63 km/s
Sub-Earth Point 4.97°N, 94.37°W
Launch Date Nov 25, 2024
Age 1 years
Type internet

Technical Details

Classification Payload
Mass 530.00 kg
Dry Mass 500.00 kg
Total Mass 530.00 kg
Length 0.30 m
Diameter 4.10 m
Span 29.00 m
Shape Box + pan
Manufacturer SPXS
Bus Type Starlink V2MO
Phase Status In Orbit
Owner/State SPXS/US

Large Constellations

Loading constellations...